• în România
  • Lista ţărilor
  • Pe 7 zile
  • Temperatura apei
  • Hartă satelitară
  • Meteo pe hartă
  • Widget-uri
  • user-avatar
    Intrare

    Meteo pe oră la Graz

    Astăzi, 21 Octombrie, Sâmbătă

    Timp Temperatura Precipitaţii Vânt Presiune Umiditate
    00:00 +12°C° 0 mm 1 m/s 726 mmHg 78%
    01:00 +12°C° 0 mm 1 m/s 725 mmHg 76%
    02:00 +12°C° 0 mm 1 m/s 725 mmHg 76%
    03:00 +11°C° 0 mm 1 m/s 725 mmHg 75%
    04:00 +11°C° 0 mm 1 m/s 725 mmHg 74%
    05:00 +11°C° 0 mm 1 m/s 725 mmHg 74%
    06:00 +11°C° 0 mm 1 m/s 725 mmHg 74%
    07:00 +11°C° 0 mm 1 m/s 725 mmHg 73%
    08:00 +14°C° 0 mm 1 m/s 726 mmHg 66%
    09:00 +16°C° 0 mm 0 m/s 726 mmHg 58%
    10:00 +19°C° 0 mm 0 m/s 726 mmHg 50%
    11:00 +19°C° 0 mm 0 m/s 726 mmHg 48%
    12:00 +20°C° 0 mm 0 m/s 726 mmHg 46%
    13:00 +23°C° 0 mm 1 m/s 725 mmHg 44%
    14:00 +22°C° 0 mm 1 m/s 725 mmHg 49%
    15:00 +21°C° 0 mm 1 m/s 725 mmHg 55%
    16:00 +20°C° 0 mm 1 m/s 725 mmHg 61%
    17:00 +18°C° 0 mm 1 m/s 724 mmHg 66%
    18:00 +15°C° 0 mm 1 m/s 724 mmHg 71%
    19:00 +13°C° 0 mm 0 m/s 724 mmHg 76%
    20:00 +13°C° 0 mm 1 m/s 724 mmHg 78%
    21:00 +13°C° 0 mm 1 m/s 724 mmHg 80%
    22:00 +13°C° 0 mm 1 m/s 724 mmHg 81%
    23:00 +12°C° 0 mm 1 m/s 724 mmHg 82%

    Mâine, 22 Octombrie, Duminică

    Timp Temperatura Precipitaţii Vânt Presiune Umiditate
    00:00 +12°C° 0 mm 1 m/s 724 mmHg 82%
    01:00 +12°C° 0 mm 1 m/s 724 mmHg 83%
    02:00 +12°C° 0 mm 1 m/s 723 mmHg 83%
    03:00 +12°C° 0 mm 1 m/s 723 mmHg 83%
    04:00 +12°C° 0 mm 1 m/s 723 mmHg 83%
    05:00 +12°C° 0 mm 1 m/s 723 mmHg 84%
    06:00 +12°C° 0 mm 1 m/s 723 mmHg 84%
    07:00 +12°C° 0 mm 1 m/s 723 mmHg 84%
    08:00 +13°C° 0,1 mm 1 m/s 723 mmHg 79%
    09:00 +15°C° 0,1 mm 1 m/s 724 mmHg 74%
    10:00 +16°C° 0,1 mm 1 m/s 724 mmHg 69%
    11:00 +15°C° 1,1 mm 2 m/s 723 mmHg 75%
    12:00 +14°C° 1,1 mm 2 m/s 723 mmHg 82%
    13:00 +13°C° 1,1 mm 2 m/s 723 mmHg 88%
    14:00 +12°C° 3,7 mm 2 m/s 722 mmHg 90%
    15:00 +12°C° 3,7 mm 2 m/s 722 mmHg 92%
    16:00 +10°C° 3,7 mm 2 m/s 722 mmHg 94%
    17:00 +9°C° 1,6 mm 2 m/s 722 mmHg 93%
    18:00 +9°C° 1,6 mm 2 m/s 723 mmHg 93%
    19:00 +9°C° 1,6 mm 2 m/s 723 mmHg 93%
    20:00 +9°C° 0,4 mm 2 m/s 723 mmHg 92%
    21:00 +8°C° 0,4 mm 2 m/s 723 mmHg 90%
    22:00 +8°C° 0,4 mm 2 m/s 723 mmHg 89%
    23:00 +8°C° 0,1 mm 2 m/s 723 mmHg 88%

    Poimâine, 23 Octombrie, Luni

    Timp Temperatura Precipitaţii Vânt Presiune Umiditate
    00:00 +8°C° 0,1 mm 2 m/s 722 mmHg 88%
    01:00 +8°C° 0,1 mm 2 m/s 722 mmHg 87%
    02:00 +8°C° 0 mm 2 m/s 722 mmHg 86%
    03:00 +7°C° 0 mm 2 m/s 722 mmHg 86%
    04:00 +7°C° 0 mm 3 m/s 722 mmHg 85%
    05:00 +7°C° 0 mm 3 m/s 722 mmHg 85%
    06:00 +7°C° 0 mm 3 m/s 722 mmHg 84%
    07:00 +7°C° 0 mm 3 m/s 722 mmHg 84%
    08:00 +8°C° 0 mm 3 m/s 722 mmHg 80%
    09:00 +8°C° 0 mm 4 m/s 722 mmHg 76%
    10:00 +8°C° 0 mm 4 m/s 722 mmHg 71%
    11:00 +9°C° 0 mm 5 m/s 722 mmHg 68%
    12:00 +9°C° 0 mm 5 m/s 722 mmHg 64%
    13:00 +9°C° 0 mm 5 m/s 722 mmHg 61%
    14:00 +9°C° 0 mm 5 m/s 722 mmHg 63%
    15:00 +10°C° 0 mm 4 m/s 723 mmHg 65%
    16:00 +8°C° 0 mm 4 m/s 723 mmHg 67%
    17:00 +8°C° 0 mm 4 m/s 723 mmHg 69%
    18:00 +8°C° 0 mm 3 m/s 723 mmHg 72%
    19:00 +8°C° 0 mm 3 m/s 723 mmHg 74%
    20:00 +8°C° 0 mm 3 m/s 724 mmHg 75%
    21:00 +8°C° 0 mm 3 m/s 724 mmHg 76%
    22:00 +8°C° 0 mm 3 m/s 724 mmHg 77%
    23:00 +8°C° 0,1 mm 3 m/s 724 mmHg 78%

    24 Octombrie, Marţi

    Timp Temperatura Precipitaţii Vânt Presiune Umiditate
    00:00 +8°C° 0,1 mm 2 m/s 724 mmHg 79%
    01:00 +8°C° 0,1 mm 2 m/s 725 mmHg 80%
    02:00 +8°C° 0,1 mm 2 m/s 725 mmHg 81%
    03:00 +8°C° 0,1 mm 2 m/s 725 mmHg 81%
    04:00 +8°C° 0,1 mm 2 m/s 725 mmHg 82%
    05:00 +8°C° 0,1 mm 3 m/s 725 mmHg 82%
    06:00 +8°C° 0,1 mm 3 m/s 725 mmHg 81%
    07:00 +8°C° 0,1 mm 3 m/s 726 mmHg 81%
    08:00 +8°C° 0 mm 4 m/s 726 mmHg 75%
    09:00 +9°C° 0 mm 5 m/s 726 mmHg 69%
    10:00 +10°C° 0 mm 6 m/s 727 mmHg 63%
    11:00 +10°C° 0 mm 6 m/s 727 mmHg 62%
    12:00 +11°C° 0 mm 6 m/s 727 mmHg 60%
    13:00 +11°C° 0 mm 6 m/s 727 mmHg 58%
    14:00 +12°C° 0 mm 5 m/s 727 mmHg 61%
    15:00 +10°C° 0 mm 5 m/s 728 mmHg 63%
    16:00 +11°C° 0 mm 4 m/s 728 mmHg 66%
    17:00 +10°C° 0 mm 4 m/s 728 mmHg 71%
    18:00 +9°C° 0 mm 3 m/s 729 mmHg 75%
    19:00 +8°C° 0 mm 3 m/s 729 mmHg 80%
    20:00 +8°C° 0 mm 3 m/s 730 mmHg 82%
    21:00 +7°C° 0 mm 3 m/s 730 mmHg 84%
    22:00 +7°C° 0 mm 2 m/s 731 mmHg 87%
    23:00 +7°C° 0 mm 2 m/s 731 mmHg 88%

    25 Octombrie, Miercuri

    Timp Temperatura Precipitaţii Vânt Presiune Umiditate
    00:00 +6°C° 0 mm 2 m/s 731 mmHg 89%
    01:00 +6°C° 0 mm 2 m/s 731 mmHg 90%
    02:00 +6°C° 0 mm 2 m/s 731 mmHg 90%
    03:00 +6°C° 0 mm 2 m/s 731 mmHg 91%
    04:00 +5°C° 0 mm 2 m/s 731 mmHg 91%
    05:00 +5°C° 0 mm 2 m/s 731 mmHg 91%
    06:00 +5°C° 0 mm 2 m/s 731 mmHg 91%
    07:00 +5°C° 0 mm 2 m/s 731 mmHg 91%
    08:00 +7°C° 0 mm 2 m/s 731 mmHg 83%
    09:00 +9°C° 0 mm 2 m/s 731 mmHg 74%
    10:00 +12°C° 0 mm 2 m/s 732 mmHg 65%
    11:00 +13°C° 0 mm 2 m/s 731 mmHg 62%
    12:00 +14°C° 0 mm 2 m/s 731 mmHg 58%
    13:00 +15°C° 0 mm 2 m/s 731 mmHg 54%
    14:00 +14°C° 0 mm 2 m/s 731 mmHg 58%
    15:00 +13°C° 0 mm 2 m/s 731 mmHg 62%
    16:00 +12°C° 0 mm 2 m/s 731 mmHg 66%
    17:00 +10°C° 0 mm 2 m/s 732 mmHg 72%
    18:00 +8°C° 0 mm 2 m/s 732 mmHg 78%
    19:00 +6°C° 0 mm 2 m/s 733 mmHg 84%
    20:00 +7°C° 0 mm 1 m/s 733 mmHg 85%
    21:00 +6°C° 0 mm 1 m/s 733 mmHg 86%
    22:00 +6°C° 0 mm 1 m/s 734 mmHg 86%
    23:00 +5°C° 0 mm 1 m/s 734 mmHg 86%

    26 Octombrie, Joi

    Timp Temperatura Precipitaţii Vânt Presiune Umiditate
    00:00 +5°C° 0 mm 1 m/s 734 mmHg 86%
    01:00 +4°C° 0 mm 1 m/s 734 mmHg 85%
    02:00 +4°C° 0 mm 1 m/s 734 mmHg 84%
    03:00 +4°C° 0 mm 1 m/s 734 mmHg 83%
    04:00 +4°C° 0 mm 1 m/s 734 mmHg 81%
    05:00 +4°C° 0 mm 1 m/s 734 mmHg 79%
    06:00 +3°C° 0 mm 1 m/s 735 mmHg 77%
    07:00 +3°C° 0 mm 1 m/s 735 mmHg 75%
    08:00 +6°C° 0 mm 1 m/s 735 mmHg 63%
    09:00 +9°C° 0 mm 1 m/s 735 mmHg 51%
    10:00 +11°C° 0 mm 0 m/s 735 mmHg 38%
    11:00 +13°C° 0 mm 1 m/s 735 mmHg 35%
    12:00 +14°C° 0 mm 1 m/s 735 mmHg 32%
    13:00 +15°C° 0 mm 1 m/s 734 mmHg 29%
    14:00 +13°C° 0 mm 1 m/s 734 mmHg 36%
    15:00 +12°C° 0 mm 1 m/s 734 mmHg 42%
    16:00 +11°C° 0 mm 1 m/s 734 mmHg 49%
    17:00 +9°C° 0 mm 1 m/s 734 mmHg 52%
    18:00 +7°C° 0 mm 1 m/s 734 mmHg 55%
    19:00 +5°C° 0 mm 0 m/s 735 mmHg 59%
    20:00 +4°C° 0 mm 0 m/s 735 mmHg 59%
    21:00 +5°C° 0 mm 1 m/s 735 mmHg 58%
    22:00 +5°C° 0 mm 1 m/s 735 mmHg 58%
    23:00 +5°C° 0 mm 1 m/s 735 mmHg 57%
    Arată mai mult